Location: Dehesa de la Cepeda
(40.6574°N, 4.3013°W)
Time: 22:28:16
(UTC+00:00)

SR - Pass Details

Date: 05 August 2021
Orbit: 580 x 874 km, 66.7° (Epoch: 17 September)

Event Time Altitude Azimuth Distance (km) Brightness Sun altitude
Rises 03:47:54 0° 164° (SSE) 3,445 ? -15.4°
Reaches altitude 10° 03:51:11 10° 146° (SSE) 2,496 ? -14.9°
Maximum altitude 03:54:56 18° 106° (ESE) 1,966 ? -14.4°
Drops below altitude 10° 03:58:36 10° 65° (ENE) 2,430 ? -13.8°
Sets 04:01:43 0° 47° (NE) 3,319 ? -13.3°
